Location: Ariel
(45.9570°N, 122.5700°W)
Time: 08:48:52
(UTC-07:00)

FO-29 - Visible Passes

Search period start: 26 April 2019 00:00
Search period end: 06 May 2019 00:00
Orbit: 800 x 1322 km, 98.5° (Epoch: 26 April)

Date Brightness Start Highest point End Pass type
(mag) Time Alt. Az. Time Alt. Az. Time Alt. Az.
26 Apr 10.1 04:08:36 10° SE 04:13:36 49° ENE 04:18:58 10° N visible
27 Apr 11.8 03:15:20 10° ESE 03:19:03 20° ENE 03:22:59 10° NNE visible
27 Apr 9.2 04:58:24 10° S 05:03:34 66° W 05:09:09 10° NNW visible
28 Apr 10.3 04:03:33 10° SE 04:08:33 46° ENE 04:13:57 10° N visible
29 Apr 11.9 03:10:25 10° E 03:14:03 19° NE 03:17:55 10° NNE visible
29 Apr 9.2 04:53:14 10° S 04:58:28 71° WSW 05:04:11 10° NNW visible
30 Apr 10.5 03:58:31 10° SE 04:03:30 43° ENE 04:08:56 10° N visible
01 May 11.9 03:05:30 10° E 03:09:04 18° NE 03:12:50 10° NNE visible
01 May 9.2 04:48:05 10° S 04:53:23 77° WSW 04:59:13 10° NNW visible
02 May 10.6 03:53:29 10° SE 03:58:28 41° ENE 04:03:56 10° N visible
03 May 12.0 03:00:36 10° E 03:04:05 17° NE 03:07:47 10° NNE visible
03 May 9.3 04:42:57 10° SSE 04:48:18 83° WSW 04:54:15 10° NNW visible
04 May 10.8 03:48:27 10° SE 03:53:26 39° ENE 03:58:56 10° N visible
05 May 12.0 02:55:42 10° E 02:59:07 17° NE 03:02:45 10° NNE visible
05 May 9.3 04:37:49 10° SSE 04:43:14 89° WSW 04:49:19 10° NNW visible
